When you browse on this site, cookies collect data to enhance your experience and personalize the content and advertising you see.
Visit our Privacy Policy to learn more. By continuing to use the site, you agree to this use of cookies and data.
  • In Czech Republic
  • List of Countries
  • For 7 days
  • Water Temperature
  • Satellite Maps
  • Weather Map
  • Weather Widgets
  • user-avatar
    Login

    Hourly Weather Węgliniec

    Today, 24 January, Thursday

    Time Temperature Precipitation Wind Pressure Humidity
    00:00 -9°C° 0 mm 4 mps 737 mmHg 76%
    01:00 -8°C° 0 mm 3 mps 738 mmHg 78%
    02:00 -8°C° 0 mm 3 mps 738 mmHg 78%
    03:00 -8°C° 0 mm 3 mps 738 mmHg 78%
    04:00 -9°C° 0 mm 4 mps 738 mmHg 79%
    05:00 -9°C° 0 mm 4 mps 738 mmHg 78%
    06:00 -9°C° 0 mm 4 mps 738 mmHg 78%
    07:00 -9°C° 0 mm 4 mps 739 mmHg 78%
    08:00 -9°C° 0 mm 4 mps 739 mmHg 75%
    09:00 -9°C° 0 mm 4 mps 739 mmHg 72%
    10:00 -8°C° 0 mm 4 mps 740 mmHg 69%
    11:00 -8°C° 0 mm 4 mps 740 mmHg 66%
    12:00 -7°C° 0 mm 4 mps 740 mmHg 63%
    13:00 -5°C° 0 mm 4 mps 740 mmHg 60%
    14:00 -7°C° 0 mm 4 mps 740 mmHg 62%
    15:00 -7°C° 0 mm 4 mps 740 mmHg 63%
    16:00 -7°C° 0 mm 4 mps 740 mmHg 64%
    17:00 -7°C° 0 mm 3 mps 740 mmHg 66%
    18:00 -7°C° 0 mm 3 mps 740 mmHg 68%
    19:00 -7°C° 0 mm 3 mps 740 mmHg 71%
    20:00 -7°C° 0 mm 3 mps 741 mmHg 71%
    21:00 -6°C° 0 mm 2 mps 741 mmHg 72%
    22:00 -7°C° 0 mm 2 mps 741 mmHg 73%
    23:00 -7°C° 0 mm 2 mps 741 mmHg 74%

    Tomorrow, 25 January, Friday

    Time Temperature Precipitation Wind Pressure Humidity
    00:00 -6°C° 0 mm 1 mps 741 mmHg 76%
    01:00 -6°C° 0 mm 1 mps 741 mmHg 77%
    02:00 -6°C° 0 mm 1 mps 741 mmHg 77%
    03:00 -6°C° 0 mm 1 mps 742 mmHg 77%
    04:00 -6°C° 0 mm 1 mps 742 mmHg 78%
    05:00 -6°C° 0 mm 1 mps 742 mmHg 78%
    06:00 -6°C° 0 mm 1 mps 742 mmHg 78%
    07:00 -6°C° 0 mm 1 mps 742 mmHg 78%
    08:00 -6°C° 0 mm 1 mps 742 mmHg 75%
    09:00 -4°C° 0 mm 1 mps 743 mmHg 73%
    10:00 -6°C° 0 mm 2 mps 743 mmHg 71%
    11:00 -6°C° 0 mm 2 mps 743 mmHg 68%
    12:00 -5°C° 0 mm 2 mps 743 mmHg 65%
    13:00 -6°C° 0 mm 3 mps 743 mmHg 62%
    14:00 -6°C° 0 mm 3 mps 743 mmHg 62%
    15:00 -6°C° 0 mm 3 mps 743 mmHg 62%
    16:00 -6°C° 0 mm 3 mps 743 mmHg 63%
    17:00 -5°C° 0 mm 2 mps 743 mmHg 65%
    18:00 -6°C° 0 mm 2 mps 743 mmHg 68%
    19:00 -6°C° 0 mm 2 mps 744 mmHg 70%
    20:00 -6°C° 0 mm 2 mps 744 mmHg 70%
    21:00 -7°C° 0 mm 3 mps 744 mmHg 70%
    22:00 -7°C° 0 mm 3 mps 743 mmHg 70%
    23:00 -8°C° 0 mm 4 mps 743 mmHg 68%

    Day after tomorrow, 26 January, Saturday

    Time Temperature Precipitation Wind Pressure Humidity
    00:00 -7°C° 0 mm 4 mps 742 mmHg 67%
    01:00 -7°C° 0 mm 4 mps 742 mmHg 65%
    02:00 -7°C° 0 mm 5 mps 741 mmHg 65%
    03:00 -6°C° 0 mm 5 mps 740 mmHg 65%
    04:00 -6°C° 0 mm 6 mps 739 mmHg 65%
    05:00 -5°C° 0.2 mm 6 mps 738 mmHg 72%
    06:00 -4°C° 0.2 mm 6 mps 738 mmHg 79%
    07:00 -4°C° 0.2 mm 6 mps 737 mmHg 85%
    08:00 -3°C° 1.5 mm 6 mps 736 mmHg 86%
    09:00 -2°C° 1.5 mm 6 mps 735 mmHg 88%
    10:00 -2°C° 1.5 mm 6 mps 735 mmHg 89%
    11:00 -1°C° 1.2 mm 6 mps 735 mmHg 91%
    12:00 +1°C° 1.2 mm 6 mps 734 mmHg 93%
    13:00 +2°C° 1.2 mm 7 mps 734 mmHg 94%
    14:00 +1°C° 0.8 mm 6 mps 734 mmHg 95%
    15:00 +1°C° 0.8 mm 5 mps 734 mmHg 96%
    16:00 +1°C° 0.8 mm 5 mps 734 mmHg 96%
    17:00 +1°C° 0.4 mm 4 mps 735 mmHg 97%
    18:00 +1°C° 0.4 mm 3 mps 735 mmHg 98%
    19:00 +1°C° 0.4 mm 3 mps 735 mmHg 98%
    20:00 +2°C° 0.4 mm 2 mps 735 mmHg 98%
    21:00 +2°C° 0.4 mm 2 mps 735 mmHg 98%
    22:00 +2°C° 0.4 mm 2 mps 735 mmHg 98%
    23:00 +2°C° 0.3 mm 2 mps 735 mmHg 98%

    27 January, Sunday

    Time Temperature Precipitation Wind Pressure Humidity
    00:00 +1°C° 0.3 mm 3 mps 735 mmHg 98%
    01:00 +1°C° 0.3 mm 3 mps 735 mmHg 97%
    02:00 +1°C° 0.3 mm 3 mps 734 mmHg 97%
    03:00 +2°C° 0.3 mm 3 mps 734 mmHg 96%
    04:00 +2°C° 0.3 mm 3 mps 733 mmHg 95%
    05:00 +2°C° 0.3 mm 3 mps 733 mmHg 94%
    06:00 +1°C° 0.3 mm 3 mps 733 mmHg 93%
    07:00 +1°C° 0.3 mm 3 mps 732 mmHg 92%
    08:00 +1°C° 0 mm 4 mps 732 mmHg 90%
    09:00 +1°C° 0 mm 4 mps 732 mmHg 88%
    10:00 +1°C° 0 mm 4 mps 731 mmHg 86%
    11:00 +2°C° 0 mm 5 mps 731 mmHg 85%
    12:00 +2°C° 0 mm 5 mps 730 mmHg 84%
    13:00 +2°C° 0 mm 5 mps 730 mmHg 84%
    14:00 +2°C° 0 mm 5 mps 729 mmHg 84%
    15:00 +3°C° 0 mm 4 mps 729 mmHg 85%
    16:00 +1°C° 0 mm 4 mps 728 mmHg 85%
    17:00 +1°C° 0.1 mm 4 mps 728 mmHg 85%
    18:00 +1°C° 0.1 mm 4 mps 728 mmHg 86%
    19:00 +1°C° 0.1 mm 4 mps 728 mmHg 86%
    20:00 +1°C° 0.1 mm 4 mps 728 mmHg 86%
    21:00 +1°C° 0.1 mm 4 mps 727 mmHg 86%
    22:00 0°C° 0.1 mm 4 mps 727 mmHg 86%
    23:00 0°C° 0 mm 4 mps 727 mmHg 87%

    28 January, Monday

    Time Temperature Precipitation Wind Pressure Humidity
    00:00 0°C° 0 mm 4 mps 727 mmHg 87%
    01:00 0°C° 0 mm 4 mps 726 mmHg 87%
    02:00 0°C° 0 mm 4 mps 726 mmHg 86%
    03:00 0°C° 0 mm 4 mps 726 mmHg 85%
    04:00 0°C° 0 mm 4 mps 725 mmHg 84%
    05:00 0°C° 0 mm 4 mps 725 mmHg 84%
    06:00 0°C° 0 mm 4 mps 725 mmHg 85%
    07:00 +1°C° 0 mm 3 mps 725 mmHg 86%
    08:00 0°C° 0 mm 4 mps 725 mmHg 85%
    09:00 +1°C° 0 mm 4 mps 725 mmHg 83%
    10:00 +1°C° 0 mm 4 mps 725 mmHg 82%
    11:00 +3°C° 0 mm 4 mps 725 mmHg 80%
    12:00 +4°C° 0 mm 4 mps 725 mmHg 78%
    13:00 +4°C° 0 mm 4 mps 725 mmHg 77%
    14:00 +3°C° 0 mm 4 mps 725 mmHg 80%
    15:00 +3°C° 0 mm 3 mps 725 mmHg 82%
    16:00 +2°C° 0 mm 3 mps 725 mmHg 85%
    17:00 +2°C° 0 mm 3 mps 725 mmHg 87%
    18:00 +2°C° 0 mm 3 mps 725 mmHg 90%
    19:00 +1°C° 0 mm 3 mps 726 mmHg 92%
    20:00 0°C° 0.2 mm 4 mps 726 mmHg 92%
    21:00 0°C° 0.2 mm 5 mps 727 mmHg 92%
    22:00 -1°C° 0.2 mm 6 mps 728 mmHg 92%
    23:00 -1°C° 0.2 mm 6 mps 728 mmHg 89%

    29 January, Tuesday

    Time Temperature Precipitation Wind Pressure Humidity
    00:00 -2°C° 0.2 mm 6 mps 729 mmHg 87%
    01:00 -2°C° 0.2 mm 7 mps 730 mmHg 85%
    02:00 -2°C° 0.3 mm 7 mps 731 mmHg 86%
    03:00 -3°C° 0.3 mm 7 mps 731 mmHg 88%
    04:00 -4°C° 0.3 mm 8 mps 732 mmHg 89%
    05:00 -3°C° 0.2 mm 7 mps 733 mmHg 88%
    06:00 -4°C° 0.2 mm 6 mps 734 mmHg 87%
    07:00 -4°C° 0.2 mm 5 mps 735 mmHg 86%
    08:00 -4°C° 0 mm 5 mps 735 mmHg 85%
    09:00 -2°C° 0 mm 5 mps 736 mmHg 85%
    10:00 -3°C° 0 mm 6 mps 736 mmHg 84%
    11:00 -2°C° 0.1 mm 6 mps 736 mmHg 82%
    12:00 -2°C° 0.1 mm 6 mps 736 mmHg 79%
    13:00 -1°C° 0.1 mm 6 mps 736 mmHg 76%
    14:00 -1°C° 0.1 mm 5 mps 736 mmHg 76%
    15:00 -1°C° 0.1 mm 4 mps 736 mmHg 77%
    16:00 0°C° 0.1 mm 3 mps 736 mmHg 77%
    17:00 -1°C° 0 mm 3 mps 736 mmHg 77%
    18:00 -2°C° 0 mm 4 mps 736 mmHg 78%
    19:00 -3°C° 0 mm 4 mps 736 mmHg 78%
    20:00 -3°C° 0 mm 4 mps 736 mmHg 80%
    21:00 -2°C° 0 mm 4 mps 736 mmHg 81%
    22:00 -2°C° 0 mm 5 mps 736 mmHg 83%
    23:00 -2°C° 0 mm 5 mps 735 mmHg 82%
    Show more